145P/Shoemaker-Levy 5 (2026)

Japanese version
Home page
Updated on August 11, 2025

---------------------------------------------------------------------

* Profile

* Pictures

* Orbital Elements

Epoch 2025 May 5.0 TT = JDT 2460800.5
T 2026 Jan. 31.90047 TT                                 Pike
q   1.8898533            (2000.0)            P               Q
n   0.11740127     Peri.   10.40008     +0.79840283     -0.59564541
a   4.1306733      Node    26.77121     +0.53744444     +0.63900974
e   0.5424830      Incl.   11.27769     +0.27148922     +0.48669611
P   8.40
From 907 observations 1991 Sept. 12-2025 Aug. 1, mean residual 0".6.
     Nongravitational parameters A1 = +0.01, A2 = -0.0159.

* Finding Charts

* Magnitudes Graph

        m1 = 9.0 + 5 log d + 20.0 log r(t - 40)

---------------------------------------------------------------------

The orbital elements are published on M.P.E.C. 2025-P113.
The charts are made with StellaNavigator Ver.11 (AstroArts).
The magnitudes graphs are made with Comet for Windows.

---------------------------------------------------------------------

Copyright(C) Seiichi Yoshida (comet@aerith.net). All rights reserved.